Maugansville, MD

4:25 AM EST on February 07, 2016 (GMT -0500)
Hagerstown Regional-Henson

Weather History for KHGR - February, 2012

Change the Weather History Date:

Thursday, February 2, 2012

  Actual Average Record
Temperature  
Mean Temperature 44 °F 32 °F  
Max Temperature 50 °F 39 °F - ()
Min Temperature 38 °F 24 °F - ()
Degree Days  
Heating Degree Days 21 33  
Month to date heating degree days 34 66  
Since 1 July heating degree days 2606 3090  
Cooling Degree Days 0 0  
Month to date cooling degree days 0 0  
Year to date cooling degree days 0 0  
Moisture  
Dew Point 33 °F    
Average Humidity 71    
Maximum Humidity 92    
Minimum Humidity 49    
Precipitation  
Precipitation 0.00 in 0.09 in - ()
Month to date precipitation 0.00 0.17  
Year to date precipitation 2.36 2.85  
Sea Level Pressure  
Sea Level Pressure 30.13 in    
Wind  
Wind Speed 7 mph (NNW)    
Max Wind Speed 26 mph    
Max Gust Speed 33 mph    
Visibility 9 miles    
Events      
T = Trace of Precipitation, MM = Missing Value Source: NWS Daily Summary

Daily Weather History Graph

Daily Weather History Graph

Search for Another Location

Airport or City:

Trip Planner

Search our weather history database for the weather conditions in past years. The results will help you decide how hot, cold, wet, or windy it might be!

Date:

Astronomy

Feb. 02, 2012 Rise Set
Actual Time 7:18 AM EST 5:31 PM EST
Civil Twilight 6:49 AM EST 5:59 PM EST
Nautical Twilight 6:17 AM EST 6:32 PM EST
Astronomical Twilight 5:46 AM EST 7:03 PM EST
Moon 12:41 PM EST (2/2) 2:58 AM EST (2/2)
Length of Visible Light 11h 09m
Length of Day
10h 12m
Waxing Gibbous, 73% of the Moon is Illuminated
Feb 2
Waxing Gibbous
Feb 7
Full
Feb 14
Last Quarter
Feb 21
New
Feb 29
First Quarter

Hourly Weather History & Observations

Time (EST) Temp. Windchill Dew Point Humidity Pressure Visibility Wind Dir Wind Speed Gust Speed Precip Events Conditions
12:53 AM 48.0 °F - 39.9 °F 74% 30.03 in 9.0 mi Calm Calm - N/A   Clear
1:53 AM 39.9 °F 36.7 °F 37.0 °F 89% 30.02 in 7.0 mi WNW 4.6 mph - N/A   Clear
2:53 AM 43.0 °F - 39.0 °F 86% 30.01 in 8.0 mi Calm Calm - N/A   Clear
3:53 AM 42.1 °F - 37.9 °F 85% 30.01 in 7.0 mi Calm Calm - N/A   Overcast
4:53 AM 44.1 °F - 39.9 °F 85% 30.01 in 8.0 mi Calm Calm - N/A   Overcast
5:53 AM 44.1 °F 42.5 °F 39.0 °F 82% 30.01 in 8.0 mi ENE 3.5 mph - N/A   Overcast
6:53 AM 42.1 °F 39.2 °F 39.0 °F 89% 30.04 in 7.0 mi WNW 4.6 mph - N/A   Mostly Cloudy
7:53 AM 42.1 °F 38.4 °F 37.0 °F 82% 30.05 in 8.0 mi North 5.8 mph - N/A   Scattered Clouds
8:53 AM 42.1 °F - 36.0 °F 79% 30.06 in 9.0 mi Calm Calm - N/A   Partly Cloudy
9:53 AM 43.0 °F 37.7 °F 35.1 °F 74% 30.08 in 9.0 mi NNE 9.2 mph - N/A   Partly Cloudy
10:53 AM 46.0 °F 41.4 °F 35.1 °F 66% 30.10 in 10.0 mi North 9.2 mph - N/A   Partly Cloudy
11:53 AM 46.9 °F - 35.1 °F 63% 30.11 in 10.0 mi North 9.2 mph - N/A   Mostly Cloudy
12:29 PM 48.2 °F - 35.6 °F 62% 30.06 in 10.0 mi North 13.8 mph - N/A   Mostly Cloudy
12:53 PM 46.9 °F - 34.0 °F 61% 30.10 in 10.0 mi NNW 11.5 mph - N/A   Mostly Cloudy
1:53 PM 48.9 °F - 30.9 °F 50% 30.12 in 10.0 mi NW 20.7 mph 26.5 mph N/A   Scattered Clouds
2:53 PM 46.9 °F - 28.0 °F 48% 30.15 in 10.0 mi NW 18.4 mph 32.2 mph N/A   Overcast
3:53 PM 46.0 °F 38.3 °F 28.0 °F 50% 30.16 in 10.0 mi NW 20.7 mph 33.4 mph N/A   Overcast
4:53 PM 43.0 °F 37.2 °F 28.9 °F 58% 30.20 in 10.0 mi North 10.4 mph - N/A   Overcast
5:53 PM 42.1 °F 35.2 °F 26.1 °F 53% 30.24 in 10.0 mi NNW 12.7 mph 20.7 mph N/A   Overcast
6:53 PM 41.0 °F 33.9 °F 27.0 °F 57% 30.28 in 10.0 mi NW 12.7 mph 19.6 mph N/A   Overcast
7:53 PM 41.0 °F 34.7 °F 27.0 °F 57% 30.30 in 10.0 mi NNW 10.4 mph - N/A   Overcast
8:53 PM 39.9 °F 32.5 °F 27.0 °F 60% 30.32 in 10.0 mi North 12.7 mph 18.4 mph N/A   Overcast
9:53 PM 39.9 °F 33.9 °F 26.1 °F 58% 30.35 in 10.0 mi North 9.2 mph - N/A   Overcast
10:53 PM 37.9 °F 27.3 °F 25.0 °F 60% 30.35 in 10.0 mi NW 21.9 mph 28.8 mph N/A   Partly Cloudy
11:53 PM 37.0 °F 28.9 °F 25.0 °F 62% 30.37 in 10.0 mi NW 12.7 mph 21.9 mph N/A   Partly Cloudy